Theta_e
300 300 300 300 300 300 301 301 301 301 302 302 302 306 306 305 305 304 305 304 303 304 303 303 303 303 303 303 305 303 304 305 308 309 308 309 311 312 313 312 315 317 317 316 313 313 314 316 329 332 335 335 336 339
300 300 300 300 301 301 301 302 302 302 302 302 304 307 307 307 307 307 306 305 303 303 303 303 303 302 302 302 303 303 304 305 306 308 308 307 310 310 311 312 314 316 314 318 314 313 314 317 322 330 332 334 335 338
300 301 302 302 302 302 301 301 301 302 302 302 305 307 307 307 307 307 307 305 302 303 302 303 304 302 302 302 302 303 303 303 303 306 306 309 310 308 310 312 312 312 314 317 317 316 318 318 320 323 330 332 334 337
303 302 301 301 301 301 302 302 302 303 303 303 306 306 306 307 308 308 308 306 303 302 304 304 301 302 302 302 302 302 303 303 304 307 307 309 311 310 311 311 312 311 312 314 314 313 313 318 319 324 330 332 335 338
301 301 301 301 302 303 302 303 303 304 304 305 306 306 307 308 308 307 307 307 306 303 306 305 304 304 302 302 302 302 303 303 304 306 308 309 308 308 310 311 310 310 312 314 313 313 317 318 318 323 327 332 336 337
301 301 301 302 303 304 305 304 304 304 306 307 307 307 308 308 308 306 306 303 305 303 304 306 304 304 304 302 302 303 303 303 303 305 305 307 306 309 312 313 310 310 311 311 313 313 313 316 315 314 319 330 333 332
301 301 301 304 307 306 305 305 305 305 307 307 307 308 308 308 307 305 306 304 303 304 304 306 305 305 303 304 303 303 303 303 303 305 306 307 309 309 310 311 310 312 313 313 312 312 313 314 314 316 327 331 329 331
301 303 307 307 306 305 305 305 305 308 307 307 307 308 308 308 307 306 306 305 304 303 304 307 307 306 305 310 313 306 305 304 305 306 307 309 309 308 309 311 311 311 310 311 311 311 313 314 318 323 329 329 331 334
306 307 306 305 305 306 305 306 308 308 307 307 307 307 307 307 307 306 305 304 303 303 305 305 307 310 306 310 313 311 306 307 307 307 310 309 308 310 310 311 311 311 313 314 315 319 316 315 323 328 328 327 333 337
307 306 306 306 306 306 308 309 308 308 307 308 307 309 311 307 306 304 304 303 303 302 301 302 304 308 306 310 314 312 314 313 313 311 309 310 308 309 313 314 314 320 322 318 319 325 325 328 327 328 327 327 331 336
306 306 307 306 307 309 311 310 309 308 309 308 309 310 307 306 306 308 307 305 302 304 300 301 303 306 307 311 314 312 312 308 314 314 310 310 311 314 315 315 317 320 324 321 322 325 325 325 327 328 327 328 332 331
306 308 307 307 310 311 311 312 313 311 308 307 308 307 307 310 313 314 315 310 309 312 309 307 309 305 307 308 313 312 311 310 316 314 313 314 313 312 312 314 313 312 322 325 324 326 326 327 327 327 328 329 329 328
308 307 307 311 312 312 312 313 314 312 309 308 309 313 314 314 312 311 312 314 318 317 319 317 317 313 313 314 317 318 320 319 317 315 312 315 313 311 311 313 312 311 311 316 317 317 318 320 324 326 326 324 323 324
308 307 310 312 312 312 313 313 314 314 311 315 316 314 317 316 315 314 314 314 314 317 315 317 321 319 320 320 319 319 318 316 319 317 317 314 312 311 310 311 312 312 311 310 311 313 313 315 316 318 319 319 318 318
309 308 312 313 313 313 314 313 314 315 314 316 315 316 316 314 313 312 313 313 312 311 315 319 319 318 318 319 317 316 319 316 313 315 313 312 311 309 308 309 308 309 309 310 310 310 311 311 311 311 311 311 311 311
310 311 313 314 313 314 314 313 315 315 315 316 314 314 312 312 311 310 310 310 310 311 317 316 317 318 317 316 316 314 317 315 314 311 310 308 308 307 307 307 307 307 308 309 309 308 307 309 310 308 308 307 308 309
311 313 314 314 313 314 314 314 314 315 316 315 315 312 312 311 311 310 309 309 309 311 315 314 312 316 313 312 313 307 310 309 310 308 306 306 306 306 306 306 306 306 306 307 307 307 307 307 306 305 306 305 305 305
312 313 315 315 313 313 314 314 315 315 314 315 313 312 312 311 310 310 309 309 308 310 310 310 308 308 310 309 310 308 307 306 307 305 303 302 303 304 304 305 304 304 304 304 305 305 305 305 306 306 305 305 305 305
311 314 315 316 313 312 314 314 315 316 316 315 314 312 311 310 310 309 309 308 307 306 308 307 305 306 306 307 306 305 305 305 307 304 302 300 300 301 302 302 302 302 301 301 302 303 303 303 304 304 304 304 303 303
313 315 315 316 314 312 315 315 312 315 315 316 315 313 311 310 310 309 308 308 307 305 305 304 304 305 305 304 302 302 301 302 303 303 302 301 299 300 300 299 299 300 300 300 301 300 303 302 301 301 301 301 301 300
313 314 316 317 315 312 314 314 315 315 315 316 314 313 316 313 312 310 309 309 307 308 305 305 302 301 300 299 299 299 299 299 300 300 300 300 299 299 299 298 298 298 299 299 300 301 301 300 300 300 299 299 299 298
313 314 316 317 315 314 316 312 316 314 317 317 317 317 317 316 314 312 309 309 309 309 308 303 302 301 301 300 298 297 297 298 298 297 296 296 298 298 298 297 297 297 297 297 298 298 299 298 299 298 298 297 296 296
314 314 315 315 318 314 316 314 319 317 318 317 317 318 318 318 315 309 311 311 310 307 306 303 301 299 299 298 298 297 296 297 297 296 296 296 295 295 296 296 295 296 296 296 297 297 297 297 297 297 297 296 296 296
314 314 318 319 319 317 316 318 317 319 319 320 318 318 317 318 314 312 311 310 310 307 305 304 300 300 299 299 298 297 295 295 296 295 294 295 296 295 294 295 295 294 295 296 295 295 295 295 295 295 295 295 295 295
313 316 316 313 317 320 320 319 317 319 321 320 319 319 318 315 315 312 311 310 310 310 309 303 302 300 300 299 297 296 294 294 295 295 294 294 294 295 295 294 294 294 294 295 295 295 294 294 294 294 294 294 294 293
317 319 320 321 320 321 321 318 318 318 320 320 320 318 315 314 312 311 311 310 310 310 310 308 305 302 299 297 297 296 295 293 294 294 293 292 293 293 294 294 294 294 293 293 294 294 294 293 293 293 293 293 292 293
316 319 318 315 320 319 317 315 315 316 320 320 320 319 316 314 312 311 310 309 310 309 307 305 304 302 299 296 294 293 293 292 293 293 292 292 292 292 292 293 293 293 292 293 293 293 293 293 293 292 292 292 292 292
319 318 322 319 321 319 319 317 317 317 316 315 314 316 314 312 310 311 310 309 308 304 299 298 298 297 296 295 294 294 293 292 292 292 291 292 292 292 292 292 292 291 292 292 293 292 292 292 292 292 292 292 293 293
320 318 318 320 320 318 318 318 317 315 313 315 317 315 313 311 310 309 308 307 305 301 300 298 296 294 294 293 293 293 293 294 295 295 294 293 293 292 291 292 292 292 292 292 292 292 292 292 292 293 293 293 294 294
323 318 320 320 321 320 319 316 316 313 311 313 312 311 311 310 308 307 307 304 302 301 300 298 296 296 296 296 296 294 293 293 293 293 294 294 293 292 292 292 292 292 292 292 292 292 292 293 293 293 293 293 293 294
319 319 321 321 323 320 317 313 312 312 311 312 310 312 314 312 310 305 303 303 301 299 297 296 296 296 296 296 296 296 296 293 293 292 292 292 292 292 291 291 291 292 292 292 292 292 293 293 293 293 293 293 293 293
321 323 322 323 323 317 313 316 316 316 315 314 315 312 313 314 315 310 300 299 299 299 297 298 298 298 296 295 295 294 293 293 293 293 292 292 292 292 291 291 292 292 292 292 293 293 293 293 292 292 293 293 293 293
321 321 320 320 321 319 316 317 318 318 317 316 315 314 314 315 315 307 300 298 299 300 299 298 297 296 295 295 295 295 294 293 293 292 292 292 292 292 291 291 292 292 292 292 292 292 292 292 293 292 292 293 293 293
Wind_Speed
25 27 28 28 30 31 33 33 33 33 33 33 32 28 25 25 23 21 14 22 12 3 7 10 17 13 12 7 6 4 6 2 3 4 3 3 3 2 4 6 3 6 7 6 11 10 20 11 8 9 4 5 9 10
27 29 30 30 33 35 35 35 36 35 35 34 32 30 27 27 25 21 14 20 23 5 4 9 19 26 27 25 9 4 5 1 1 1 2 2 3 3 4 4 5 6 11 4 9 7 12 15 14 16 11 13 12 14
29 31 34 34 35 38 39 38 37 36 36 34 31 29 29 27 22 17 16 16 12 2 5 11 9 14 18 27 29 7 5 7 5 4 2 3 7 2 4 7 9 6 8 7 10 11 18 24 21 18 14 17 18 16
33 34 35 35 36 37 38 38 37 37 36 34 31 29 27 24 17 11 11 14 12 2 3 4 6 9 8 13 20 32 22 3 2 3 4 3 3 5 4 9 10 10 7 8 13 20 23 22 21 18 16 16 18 15
35 36 36 37 37 38 37 37 36 35 35 33 31 28 24 17 10 7 7 11 17 5 2 5 19 8 5 14 16 21 23 16 5 3 5 5 3 3 6 9 14 14 19 12 11 11 8 17 16 20 20 18 14 13
36 37 37 38 39 37 36 36 35 35 32 36 32 27 17 8 4 2 2 2 11 10 1 3 4 4 4 5 14 15 13 9 5 4 3 4 11 4 4 5 13 17 19 20 20 17 16 24 23 27 27 18 12 12
38 38 38 37 36 34 34 34 34 31 36 34 29 17 5 7 7 3 2 1 6 9 1 3 4 3 3 4 4 4 12 4 5 3 4 5 5 6 3 14 23 15 18 21 21 17 24 27 19 18 18 12 5 11
37 35 33 32 31 31 32 34 31 31 34 29 12 9 12 10 4 2 5 3 12 2 0 2 4 4 1 2 3 6 5 5 5 3 3 4 3 5 6 19 17 18 20 22 24 23 25 21 16 18 15 2 6 10
34 31 30 29 30 31 31 28 32 33 28 11 8 7 5 5 2 2 7 14 6 3 1 1 2 3 5 3 1 3 3 3 3 4 3 3 2 5 14 19 24 24 17 17 15 18 21 23 17 11 8 5 11 11
31 28 28 29 30 28 28 33 32 27 11 5 3 1 2 3 9 8 3 2 2 2 1 2 2 3 2 2 1 2 1 2 2 1 4 3 3 14 21 22 21 13 8 17 16 13 19 16 7 7 8 2 8 11
27 27 28 28 26 29 35 31 25 19 3 1 2 2 2 11 2 1 1 1 1 2 2 3 3 4 1 2 2 2 2 2 3 3 3 3 6 21 26 28 23 18 5 8 6 9 7 12 8 8 6 3 7 18
26 26 26 23 27 35 31 23 20 10 3 2 4 4 4 2 1 4 4 1 1 3 2 2 2 3 3 2 1 0 2 1 4 5 5 6 11 19 22 26 26 26 17 15 12 9 9 10 8 9 10 7 12 20
27 25 19 24 31 30 23 23 18 7 8 5 2 2 2 5 8 6 7 4 6 5 3 7 3 2 2 3 2 1 6 5 4 5 3 8 16 18 20 20 27 28 31 26 24 22 22 18 19 12 12 15 16 20
25 17 16 26 32 23 22 27 25 10 4 4 5 7 6 5 5 2 8 6 5 5 9 6 4 2 2 4 4 6 5 5 6 6 8 9 16 16 15 16 19 22 24 23 24 23 23 22 19 25 25 24 23 18
21 12 18 29 25 18 18 21 24 14 5 5 6 6 5 6 6 7 7 4 6 7 4 3 1 3 5 4 5 5 6 5 6 5 6 10 14 14 15 15 15 16 16 17 17 18 17 18 16 19 26 26 26 26
16 7 20 24 20 17 15 15 16 10 5 4 7 5 7 3 10 11 11 10 9 8 1 3 5 5 8 5 8 8 5 6 5 6 8 11 13 13 13 13 14 14 15 15 18 19 22 18 16 20 26 25 26 24
7 7 20 21 13 16 21 8 7 5 5 5 3 4 4 2 5 9 10 11 12 8 4 4 7 6 3 5 7 5 5 5 7 8 7 9 12 12 11 12 15 17 17 20 22 23 21 19 24 25 15 20 24 26
3 15 17 18 14 6 8 8 4 4 5 3 3 5 3 5 8 7 8 10 7 5 5 5 4 9 5 5 5 6 4 5 5 5 7 10 11 15 16 13 18 20 20 21 20 21 23 22 17 14 17 13 19 21
15 13 16 16 11 4 3 4 4 3 2 1 2 1 2 4 8 12 10 14 12 7 3 4 6 4 4 3 5 7 6 3 3 5 6 13 15 17 16 19 21 21 20 20 19 15 16 20 18 17 16 19 18 20
5 6 13 10 8 3 3 2 2 3 3 1 1 2 2 3 5 8 10 9 7 3 6 4 3 1 3 4 3 5 6 5 4 4 6 9 15 16 18 16 14 14 16 17 19 20 16 17 19 18 19 21 21 19
4 6 5 8 4 5 3 1 2 2 2 1 0 1 1 1 4 8 7 6 6 3 3 2 2 2 3 3 5 4 6 8 5 4 4 5 11 12 14 15 15 16 16 15 14 15 16 14 14 15 18 19 18 20
5 8 4 4 3 2 3 3 2 2 1 1 0 1 2 2 2 3 3 5 3 2 1 0 0 2 3 4 6 8 7 7 8 7 8 9 7 9 10 12 13 12 14 14 13 13 13 13 12 14 16 16 18 19
6 5 2 4 1 3 1 1 0 2 1 1 0 1 1 2 2 1 2 1 1 1 2 2 1 1 1 2 3 8 10 9 7 8 7 7 8 9 10 10 10 10 11 13 13 13 14 14 15 14 14 14 14 15
4 3 3 2 2 1 1 1 1 1 1 1 1 1 1 2 2 2 1 1 1 1 3 5 3 1 1 0 4 6 8 8 7 8 9 8 8 8 8 8 7 8 7 7 11 12 12 13 13 13 13 13 13 13
2 4 3 4 1 1 2 1 1 0 1 1 0 1 1 1 1 1 1 2 2 3 2 5 5 3 2 0 1 2 4 6 8 7 9 8 8 9 9 8 8 9 7 6 8 9 9 9 10 10 11 11 10 11
3 2 2 1 1 1 1 1 1 1 1 1 1 1 0 1 1 1 1 1 2 3 3 3 4 3 3 1 1 2 3 4 6 6 6 7 7 7 7 7 8 8 11 8 7 8 8 8 9 9 8 7 7 7
2 1 1 0 0 1 1 0 0 1 1 1 1 1 1 1 1 1 2 3 2 2 3 4 2 4 1 5 3 3 3 3 3 3 3 4 6 7 7 8 9 10 9 7 7 7 7 7 7 8 7 7 7 7
1 2 2 2 2 1 1 1 1 2 2 2 2 3 2 3 2 3 3 3 2 1 2 4 4 4 7 6 5 4 4 2 1 2 3 1 4 7 9 9 8 7 4 4 5 5 6 6 5 6 6 5 5 6
3 3 3 2 2 3 3 4 3 3 3 3 2 3 2 2 0 3 3 2 2 3 3 4 4 6 6 6 4 3 3 4 7 8 7 4 6 9 12 11 12 8 4 3 3 2 3 4 4 5 5 5 5 5
2 3 2 1 3 3 2 4 2 2 4 2 1 1 0 1 1 3 2 2 3 2 2 3 5 6 3 3 2 2 1 1 3 6 5 5 6 6 8 9 9 9 8 6 3 1 2 2 3 4 5 5 6 6
4 4 3 3 3 1 1 2 2 2 2 3 2 2 1 0 0 1 2 2 2 4 5 5 4 3 2 1 3 5 4 3 1 1 2 3 5 6 6 6 7 7 8 7 5 4 4 3 5 5 6 6 6 8
4 5 3 3 2 1 2 3 2 2 2 2 2 2 2 1 1 2 1 3 4 4 3 5 4 3 3 1 4 4 2 1 3 1 3 5 8 7 4 3 6 8 7 6 5 5 5 6 6 6 6 7 8 8
2 3 3 2 1 2 3 3 2 1 1 1 1 2 2 1 1 2 1 3 3 3 6 7 7 7 6 6 8 6 3 6 4 1 6 9 10 11 2 4 7 9 8 7 6 6 6 6 7 7 8 8 8 8
Wind_Direction
321 321 321 324 323 322 321 323 323 323 324 322 318 309 302 292 284 274 263 236 206 243 254 244 258 255 255 239 246 269 314 184 257 226 239 228 243 275 270 261 219 203 191 202 227 242 240 269 276 231 347 318 315 314
321 321 320 323 322 321 320 323 323 326 323 324 317 312 309 301 294 275 258 237 216 215 265 251 262 256 246 245 251 230 234 10 316 303 248 302 244 236 263 267 211 238 223 237 219 218 266 294 288 301 317 297 307 301
319 319 319 322 322 320 321 323 324 324 324 325 318 315 311 309 305 287 241 222 195 273 278 261 254 267 244 235 233 235 224 223 223 234 294 272 248 252 234 245 262 268 261 240 267 256 264 272 290 304 289 300 301 297
318 319 320 321 321 320 319 321 324 324 325 327 320 320 315 316 310 298 249 221 194 151 270 278 318 273 266 232 216 217 225 196 240 215 211 244 262 234 244 265 266 258 286 265 270 277 277 275 269 296 292 289 284 287
319 321 321 322 321 319 319 321 325 326 330 332 329 323 321 317 302 290 262 246 234 165 273 294 301 278 325 219 207 211 215 224 222 224 224 239 212 257 240 259 259 241 240 231 252 250 287 280 297 318 298 287 287 294
322 322 323 323 319 319 321 324 327 329 335 335 327 325 316 283 254 87 51 295 239 202 358 296 312 281 284 199 200 200 201 211 212 205 222 231 229 232 251 251 249 243 233 236 251 260 271 276 288 290 290 275 293 297
323 325 324 320 317 322 324 327 328 333 337 332 333 329 300 207 185 126 146 230 177 194 215 284 286 259 275 195 173 186 196 196 213 227 230 241 234 210 242 255 251 245 255 259 254 263 260 259 265 263 260 243 304 277
325 326 324 321 324 327 329 328 331 337 336 336 348 41 105 135 138 327 334 246 166 124 18 291 281 291 175 252 208 175 182 195 206 237 236 227 213 211 253 257 267 257 252 251 251 241 243 250 262 238 240 220 239 229
330 328 327 329 330 330 332 336 337 337 339 345 131 100 86 58 56 31 109 135 111 79 279 251 275 303 356 267 271 188 149 197 223 221 240 233 213 236 256 271 268 263 251 249 255 223 218 221 227 202 192 149 245 102
332 332 333 334 334 338 341 338 336 341 359 98 116 338 56 50 136 112 85 43 15 19 54 251 298 267 294 300 309 341 303 346 282 315 326 287 275 275 288 272 266 285 241 221 228 200 190 192 186 164 104 283 271 101
336 338 339 340 342 343 340 341 343 350 94 127 56 65 351 139 202 210 72 25 340 286 212 246 234 277 201 286 321 60 331 337 316 0 348 314 348 355 352 17 18 8 57 158 157 120 110 125 145 127 102 318 60 75
342 341 340 345 343 345 348 354 350 14 52 73 109 106 126 290 340 345 6 309 349 303 221 258 282 220 278 240 300 56 353 290 10 336 352 2 345 356 355 4 14 20 34 88 78 102 107 93 96 93 77 74 89 89
344 344 347 348 348 354 356 8 10 17 119 112 119 99 43 15 29 13 336 338 320 328 320 318 309 246 246 244 266 320 10 14 313 16 38 6 357 4 10 13 18 19 28 34 37 44 49 42 59 69 78 65 77 79
347 348 353 356 357 355 11 11 14 26 34 47 33 22 38 5 351 297 316 295 277 283 308 311 309 356 345 14 6 356 15 17 12 18 29 356 349 349 5 16 32 31 28 29 29 40 44 37 40 43 55 58 62 62
348 350 358 358 358 2 11 8 9 11 48 52 34 37 11 330 314 322 309 288 307 300 302 323 344 23 22 39 6 14 20 25 22 13 357 339 334 342 351 4 14 19 24 29 37 40 44 45 42 39 30 45 51 52
352 359 356 353 3 18 18 5 12 16 48 60 44 360 335 341 2 360 354 352 347 332 88 29 21 26 35 24 9 14 5 26 8 345 331 329 336 350 357 11 22 25 28 30 33 40 39 40 59 59 50 41 45 46
3 3 353 353 355 24 30 27 20 43 46 47 10 5 351 332 346 357 353 349 335 17 42 51 44 17 12 33 12 9 343 329 341 331 322 343 358 358 6 20 21 26 29 30 31 33 42 49 51 49 42 37 49 48
337 350 356 357 358 2 26 36 66 57 50 35 29 4 3 20 2 11 355 2 11 18 20 50 49 29 48 6 349 346 307 300 293 340 350 353 0 15 27 31 30 28 28 27 30 34 35 35 36 37 40 45 56 56
329 344 355 357 4 20 45 43 48 90 70 312 315 334 18 27 26 14 15 10 18 29 55 49 59 40 28 330 327 345 352 347 324 344 9 13 16 23 26 34 34 34 33 31 31 32 36 41 41 40 41 50 57 52
323 337 348 359 19 56 69 56 56 113 179 160 182 63 58 47 14 25 28 20 18 33 48 64 76 32 341 352 339 326 344 344 345 17 28 23 21 26 31 29 27 26 34 33 31 31 35 43 37 36 41 49 51 46
339 339 350 16 31 55 77 58 81 49 134 178 61 232 250 1 39 36 26 2 44 33 63 63 72 31 328 334 9 2 28 20 28 18 7 17 15 28 27 25 27 32 30 26 28 31 35 30 26 37 50 53 54 56
337 346 357 15 56 55 84 30 59 104 105 89 146 352 14 12 24 36 338 36 41 42 336 295 24 356 28 25 13 22 2 15 37 47 36 29 25 21 22 21 24 29 29 22 23 26 30 30 38 49 55 57 59 59
343 358 20 20 101 51 96 18 79 14 348 36 57 26 38 23 49 260 74 350 310 308 281 247 183 181 356 349 18 37 24 16 20 20 14 19 27 24 22 25 26 27 33 27 30 39 46 50 53 55 56 57 58 56
354 20 36 37 28 86 143 71 71 84 83 45 12 20 38 14 359 56 77 302 327 283 223 228 220 239 218 14 36 20 10 359 354 7 10 359 6 20 16 17 22 27 24 41 47 48 45 42 37 38 38 40 42 41
30 356 45 345 42 17 49 21 31 189 29 60 347 35 45 342 66 45 343 307 284 284 256 213 237 244 265 58 19 15 7 359 354 353 4 358 351 360 14 24 37 33 22 38 35 37 40 39 40 41 39 36 38 39
74 356 60 11 37 344 327 306 339 334 240 206 76 85 61 99 3 342 245 267 285 304 317 246 242 234 216 209 34 28 11 351 344 352 20 17 15 8 6 4 1 23 10 2 359 19 32 36 37 31 35 47 48 39
99 179 116 281 245 189 214 155 169 259 250 249 153 172 201 322 278 222 232 220 254 335 337 325 273 205 146 137 116 76 46 13 11 49 57 40 34 25 12 356 345 337 336 354 10 15 20 24 30 33 36 41 35 22
232 168 214 155 208 202 259 237 241 236 226 162 173 213 227 216 212 179 199 186 251 319 63 67 95 126 128 123 120 106 76 62 19 263 261 349 22 15 4 352 337 332 353 4 12 17 14 16 19 21 25 31 27 10
214 180 187 229 207 215 226 210 217 201 175 184 216 208 224 207 263 187 191 217 230 176 139 120 109 125 121 127 126 113 87 48 30 34 33 33 15 16 2 1 5 9 9 6 18 37 36 31 21 17 18 7 2 7
182 176 202 232 231 236 241 192 214 148 181 191 145 114 183 267 220 193 204 235 213 191 148 140 151 161 165 192 204 203 175 96 51 31 22 25 13 352 356 2 1 8 11 8 360 29 46 10 4 6 5 2 2 355
141 180 208 211 251 226 302 158 109 110 170 200 209 220 205 274 194 247 254 235 173 144 132 130 148 169 179 248 310 326 321 214 170 26 347 341 340 344 348 359 4 2 357 353 350 349 352 358 357 352 353 352 353 343
187 208 215 229 241 58 177 191 187 227 199 208 212 191 186 197 242 117 84 126 133 126 134 138 114 109 132 34 353 334 281 156 152 65 6 348 340 334 337 11 11 5 6 13 15 13 4 356 355 356 351 346 343 345
195 189 215 263 245 223 178 192 201 273 210 255 250 224 233 273 19 85 67 139 85 98 127 121 113 107 84 43 19 13 52 143 151 64 4 5 5 359 59 40 17 10 8 5 360 354 352 351 348 348 343 344 347 346